Regional Weather Roundup
Issued by NWS

Home | Current Version | Previous Version | Text Only | Print | Product List | Glossary On
Versions: 1 2 3 4 5 6 7 8 9 10 11 12 13 14 15 16 17 18 19 20 21 22 23 24 25 26 27 28 29 30 31 32 33 34 35 36 37 38 39 40 41 42 43 44 45 46 47 48 49 50
000
ASUS46 KSEW 310810
RWRWA

WASHINGTON REGIONAL WEATHER ROUNDUP
NATIONAL WEATHER SERVICE SEATTLE WA
100 AM PDT SUN AUG 31 2014

NOTE:"FAIR" INDICATES FEW OR NO CLOUDS BELOW 12,000 FEET WITH NO
SIGNIFICANT WEATHER AND/OR OBSTRUCTIONS TO VISIBILITY.

WAZ505-507>509-310900-
SEATTLE, TACOMA, EVERETT, AND VICINITY

CITY           SKY/WX    TMP DP  RH WIND       PRES   REMARKS
EVERETT        LGT RAIN  58  55  90 CALM      30.00R
BOEING FIELD   CLOUDY    62  56  80 SE7       29.99R
RENTON         CLOUDY    58  58 100 CALM      29.99R
SEATAC AIRPORT CLOUDY    59  55  87 S7        30.00R
JBLM-MCCHORD   CLEAR     56  53  90 NW7       30.00R
PUYALLUP       NOT AVBL
JBLM-FT LEWIS  CLEAR     56  53  90 SE10      29.99R
TACOMA NARROWS MOCLDY    58  53  84 S10       29.99S
$$

WAZ001-503-506-510-514-515-310900-
NORTH INTERIOR

CITY           SKY/WX    TMP DP  RH WIND       PRES   REMARKS
BELLINGHAM     CLOUDY    61  54  77 S3        29.95R
FRIDAY HARBOR  CLEAR     55  51  86 SW5       29.97R
EASTSOUND      CLEAR     57  54  88 CALM      29.94R
PORT ANGELES   PTCLDY    55  49  80 W8        29.97S
NAS WHIDBEY    PTCLDY    55  50  83 NE3       29.97S
BURLINGTON     CLEAR     55  54  94 SW5       29.98S
$$

WAZ020-022-039-040-504-511-512-310900-
SOUTHWEST INTERIOR

CITY           SKY/WX    TMP DP  RH WIND       PRES   REMARKS
SHELTON        MOCLDY    56  54  93 W10       29.96S
OLYMPIA        PTCLDY    57  53  86 S9        29.99S
CHEHALIS       FAIR      54  54 100 SW6       30.02R
KELSO          CLOUDY    59  54  82 CALM      30.06S
VANCOUVER      MOCLDY    57  50  77 CALM      30.02S
SCAPPOOSE, OR  CLOUDY    56  52  86 CALM      30.02R
PORTLAND, OR   MOCLDY    59  52  77 CALM      30.03R
$$

WAZ021-516-517-310900-
WASHINGTON COAST

CITY           SKY/WX    TMP DP  RH WIND       PRES   REMARKS
FORKS          CLOUDY    56  55  97 CALM      30.00R
HOQUIAM        PTCLDY    58  57  97 W3        30.01S
ASTORIA, OR    MOCLDY    58  56  93 CALM      30.01S
$$

WAZ019-023-024-040-518-519-310900-
CASCADE MOUNTAINS AND COLUMBIA GORGE

CITY           SKY/WX    TMP DP  RH WIND       PRES   REMARKS
STAMPEDE PASS  NOT AVBL
TROUTDALE, OR  MOCLDY    57  55  93 E3        30.02R
THE DALLES, OR PTCLDY    63  46  54 W10       29.97R
$$

WAZ026-027-041>044-520-521-310900-
EAST SLOPES

CITY           SKY/WX    TMP DP  RH WIND       PRES   REMARKS
OMAK           PTCLDY    60  41  49 N9        29.83R
WENATCHEE      PTCLDY    64  47  53 W13       29.87R
ELLENSBURG     CLEAR     57  46  66 NW15      29.93R
YAKIMA         CLEAR     62  46  55 N9        29.91R
$$

WAZ028-034-035-310900-
COLUMBIA BASIN

CITY           SKY/WX    TMP DP  RH WIND       PRES   REMARKS
EPHRATA        PTCLDY    66  48  52 NW18G28   29.82R
MOSES LAKE     PTCLDY    63  51  65 SW6       29.84R
PASCO          CLEAR     62  51  67 SW9       29.89R
HERMISTON, OR  CLEAR     61  49  64 SW13G20   29.93R
$$

WAZ036>038-310900-
NORTHEAST WASHINGTON

CITY           SKY/WX    TMP DP  RH WIND       PRES   REMARKS
SPOKANE GEIGER MOCLDY    58  53  84 S7        29.86R
SPOKANE FELTS  MOCLDY    61  52  72 VRB6      29.86S
FAIRCHILD AFB  MOCLDY    56  53  89 S10       29.87R
COEURDALENE,ID CLOUDY    61  52  72 W3        29.87S
DEER PARK      MOCLDY    58  52  80 S12       29.86R
$$

WAZ029>033-310900-
SOUTHEAST WASHINGTON

CITY           SKY/WX    TMP DP  RH WIND       PRES   REMARKS
PULLMAN        MOCLDY    59  47  64 SW9       29.92R
LEWISTON, ID   MOCLDY    64  48  56 S10       29.88S
WALLA WALLA    PTCLDY    62  48  60 S13       29.95R
PENDLETON, OR  CLOUDY    60  46  59 W22       29.94R
$$


USA.gov is the U.S. government's official web portal to all federal, state and local government web resources and services.